GFSSE_925_spd_021.txt.gz
Wind_Speed
16 23 21 23 23 27 23 21 19 17 18 18 19 17 16 15 12 10 10 10 10 11 10 10 9 9 9 9 8 8 6 7 8 8 9 8 7 6 8 7 7 7 11
15 19 23 22 22 23 22 20 16 17 18 20 19 17 16 14 11 10 10 10 9 10 8 9 9 9 10 9 8 7 5 7 7 6 8 5 4 5 7 6 9 8 12
16 16 17 18 19 17 17 17 19 19 19 20 19 17 15 13 10 9 9 8 8 8 8 8 8 8 9 9 9 7 6 6 5 5 5 6 4 6 5 4 8 9 12
15 14 14 17 17 17 18 18 18 18 17 19 18 17 12 11 10 8 7 6 7 7 7 7 7 8 8 8 9 8 6 4 2 3 4 5 6 6 4 7 8 11 10
15 15 15 17 18 18 19 19 18 19 17 17 17 14 11 11 9 6 5 6 5 6 6 6 7 8 7 7 7 6 6 6 1 1 3 4 6 2 5 6 7 9 10
17 16 17 18 18 19 20 20 19 19 17 16 15 13 11 9 7 5 5 5 5 5 5 6 7 8 7 7 6 7 6 6 4 1 2 3 5 4 6 7 5 7 9
18 16 16 18 18 18 18 19 19 15 15 15 13 11 9 7 5 5 4 3 4 4 5 7 8 8 8 7 7 6 6 6 3 4 3 4 4 4 5 7 6 7 8
17 16 15 16 17 17 17 17 18 14 14 13 10 10 9 7 6 4 2 2 3 4 6 7 9 8 8 8 7 7 6 4 5 2 1 4 4 5 6 6 6 6 7
16 16 15 15 16 17 17 15 14 13 12 12 11 9 8 6 4 2 1 1 3 4 6 8 7 7 7 7 7 7 6 4 2 1 1 4 5 6 7 6 6 7 7
15 14 14 14 16 15 14 14 13 12 12 10 9 8 6 4 3 0 1 4 5 5 5 6 5 6 6 6 6 5 5 6 4 3 0 3 5 6 6 6 7 7 7
14 14 15 15 15 15 14 12 11 11 11 9 8 7 5 4 4 4 5 5 6 5 6 6 5 5 5 5 4 5 5 4 2 2 2 2 4 8 9 8 8 9 8
17 15 15 15 15 14 12 11 10 9 8 7 7 7 6 6 6 6 6 4 5 4 7 6 5 4 5 4 4 6 5 5 2 3 3 6 5 7 9 11 10 11 11
17 15 16 15 15 15 13 12 10 10 9 8 9 9 8 7 7 6 6 5 5 5 5 5 6 3 3 4 6 7 5 4 3 3 4 5 6 6 9 11 11 12 12
18 17 16 16 15 15 13 13 12 11 11 10 10 11 10 8 9 7 7 6 5 5 6 6 5 6 4 6 5 5 4 4 4 4 4 5 3 5 9 10 13 13 13
20 19 18 17 17 16 15 13 13 13 13 13 11 12 12 11 10 9 8 8 7 7 6 6 6 7 8 7 6 5 5 5 5 4 5 7 5 5 7 10 11 13 14
19 20 19 19 19 17 17 16 14 14 14 14 13 13 15 13 12 13 11 9 8 8 7 7 7 8 7 8 7 5 6 6 6 6 6 5 4 8 7 9 11 12 16
22 20 21 21 20 20 20 18 16 15 14 14 15 15 15 15 16 14 13 12 10 9 9 9 10 7 8 7 7 7 5 6 7 8 8 6 6 6 10 10 9 12 14
20 22 21 19 20 21 21 19 16 14 13 14 14 14 15 15 17 15 13 10 12 10 7 8 7 6 6 5 5 6 7 9 9 9 8 8 7 8 8 11 12 13 15
22 21 22 22 21 23 23 19 17 15 15 13 14 13 12 11 12 14 11 9 10 9 8 4 4 5 7 8 10 10 9 8 7 4 4 4 5 6 7 10 11 12 14
22 22 21 21 20 22 18 18 15 15 14 13 15 15 14 13 12 10 7 8 8 7 4 4 5 6 6 7 9 10 7 2 4 3 5 6 6 6 4 4 7 8 11
22 22 24 23 25 20 18 15 15 17 16 15 16 18 17 15 15 11 9 8 9 7 4 4 5 5 5 6 8 7 3 1 6 4 5 7 7 8 7 7 5 2 5
26 28 25 27 27 28 21 17 14 13 13 13 12 13 14 13 13 12 11 9 9 6 3 4 3 5 4 3 5 3 2 2 1 3 5 7 7 6 7 8 7 7 4
28 27 28 31 32 32 25 16 13 13 11 10 13 12 13 14 14 13 13 11 9 5 3 2 3 3 5 2 2 2 1 2 6 1 1 5 5 6 5 6 8 7 7
30 29 30 32 33 33 29 21 19 18 17 14 11 10 11 13 13 13 13 13 9 7 6 3 2 2 2 3 0 1 1 1 2 2 0 1 4 6 6 7 7 9 10
30 29 29 33 35 34 29 27 22 21 17 11 9 10 12 14 14 15 14 13 10 9 7 5 4 4 3 2 2 2 2 2 1 2 3 5 3 4 4 4 5 6 8
28 29 29 32 37 35 30 29 28 23 18 13 11 11 10 12 14 15 15 13 10 9 8 6 7 5 4 3 3 4 3 1 2 2 3 6 7 3 6 2 2 3 6

GFSSE_925_spd_024.txt.gz
Wind_Speed
16 18 21 24 24 23 20 17 20 20 20 18 18 16 15 14 12 12 12 11 13 13 13 13 13 12 12 10 11 10 8 9 9 9 8 8 7 7 6 6 8 8 9
16 17 21 21 22 22 19 17 18 17 17 18 16 14 13 12 11 12 11 11 13 12 12 12 11 11 11 10 10 10 7 7 6 8 5 6 7 7 6 8 6 11 11
19 20 19 19 20 19 17 16 16 17 17 17 14 13 12 11 12 11 10 10 11 11 10 11 10 10 10 10 10 8 7 5 4 4 7 5 7 6 5 7 8 12 11
20 18 18 18 17 16 16 16 16 17 17 15 13 12 10 9 9 9 8 10 10 9 9 9 10 9 9 9 8 7 6 3 1 2 3 5 8 6 8 8 9 10 9
14 15 14 15 16 16 17 16 16 16 16 14 14 11 9 8 7 7 7 9 9 8 8 8 8 8 7 7 7 7 6 6 2 2 6 5 5 5 8 8 8 11 7
14 14 14 14 15 16 16 16 16 15 15 14 13 10 9 8 6 6 7 7 7 7 7 7 7 7 7 7 6 6 5 5 4 2 5 6 6 6 8 7 7 8 10
17 15 14 14 15 16 17 16 17 15 14 13 11 9 8 6 5 6 6 5 6 6 6 7 7 8 7 7 6 6 5 4 4 6 3 4 5 7 7 7 7 8 8
18 16 15 15 14 15 16 16 16 14 13 12 10 8 7 5 4 4 4 3 3 4 5 6 7 7 7 7 6 6 5 4 3 4 3 4 2 6 6 6 6 7 8
18 17 16 15 15 15 15 14 12 12 11 10 8 7 6 4 3 2 1 2 3 4 5 6 6 6 7 6 6 6 5 5 3 3 3 5 3 6 6 6 6 7 8
17 15 16 16 15 14 13 12 11 10 10 9 8 7 5 3 1 2 3 4 5 5 5 5 5 5 5 5 4 5 4 3 2 3 5 4 2 6 6 7 6 8 7
16 16 16 16 16 14 13 12 11 10 10 9 6 6 3 3 2 3 5 5 5 5 5 4 5 4 3 4 4 4 3 3 1 1 2 1 2 7 8 7 7 8 8
17 15 16 16 16 15 13 11 10 9 8 8 7 6 5 4 4 4 5 5 5 5 3 3 4 2 2 3 3 5 3 4 2 2 1 4 3 6 10 10 8 10 10
19 18 17 16 16 15 13 12 11 10 9 8 8 7 6 5 4 4 4 4 3 5 4 4 3 2 2 4 5 6 4 4 4 2 2 4 3 6 10 12 10 12 12
19 17 17 17 16 16 13 13 12 11 10 9 8 8 7 6 6 5 4 3 3 4 5 5 4 4 4 5 6 6 5 5 5 4 3 4 3 5 10 11 13 12 13
19 18 18 18 17 16 14 13 12 11 11 10 9 9 9 8 7 7 5 5 5 6 6 5 5 7 8 8 7 7 7 6 6 6 5 5 6 7 8 11 12 14 13
19 19 18 19 18 17 16 14 13 12 11 12 11 11 11 10 9 7 8 8 6 7 6 5 6 8 7 8 8 4 6 6 5 6 9 7 7 9 9 11 12 12 14
21 19 19 19 19 18 17 16 14 13 13 12 12 11 12 12 13 10 9 9 9 7 7 4 7 7 8 8 8 7 6 5 7 8 9 10 9 7 10 12 12 13 14
20 21 20 19 19 19 18 16 15 14 13 13 12 12 11 12 12 11 8 9 9 9 8 6 6 7 8 9 8 9 8 9 9 10 9 9 10 10 8 10 13 13 14
20 20 20 20 19 20 18 16 15 14 13 12 12 12 11 10 9 9 9 11 9 9 7 6 6 7 10 10 10 8 7 7 6 4 3 3 4 6 8 5 9 12 14
19 19 19 20 19 18 16 16 14 14 13 13 13 12 10 10 10 9 8 9 7 8 6 3 6 9 8 7 8 7 6 4 2 0 2 1 1 1 2 3 6 9 8
21 20 21 21 20 18 17 16 16 15 13 12 13 12 12 12 13 12 11 9 7 8 3 3 7 6 8 5 8 4 1 3 1 1 2 2 2 2 2 2 1 3 4
24 24 23 24 22 21 18 16 14 12 13 12 11 11 11 10 11 10 10 7 5 3 2 4 4 7 4 4 6 6 2 6 5 1 0 2 2 2 2 4 3 3 1
27 26 26 26 25 23 22 17 13 12 11 11 12 11 10 10 10 8 7 6 5 4 5 3 4 4 5 4 4 4 2 2 3 4 2 3 3 3 3 4 5 6 6
29 27 27 27 26 26 24 22 19 16 15 11 9 8 8 8 7 7 7 6 6 5 3 3 3 3 3 4 2 0 2 5 4 2 5 1 1 3 4 4 4 5 5
30 29 28 28 28 27 26 25 22 20 17 13 10 7 9 9 10 9 8 7 6 5 4 3 3 2 2 4 2 2 2 3 1 5 3 1 2 1 1 1 1 1 2
31 30 29 29 30 29 27 26 25 22 19 15 13 12 11 10 10 11 12 11 9 6 6 4 4 4 3 3 4 3 4 3 3 6 5 5 4 4 5 5 4 4 3

GFSSE_925_spd_030.txt.gz
Wind_Speed
17 21 21 22 22 22 22 21 22 23 22 21 19 20 19 18 16 18 17 17 15 14 14 14 12 12 12 11 11 11 11 9 10 9 10 11 11 9 9 7 8 11 12
18 18 21 21 20 19 19 22 21 22 21 20 17 17 17 16 16 16 16 14 14 13 12 12 11 12 12 11 10 9 8 7 8 6 9 10 11 12 10 13 17 14 12
20 21 20 21 19 19 21 19 21 20 18 17 16 16 16 15 14 15 13 12 12 12 11 11 10 10 11 10 9 8 7 6 5 4 5 10 11 12 11 13 14 14 12
24 21 19 20 19 18 18 18 19 17 16 16 14 15 13 12 12 12 11 10 11 10 10 10 9 9 9 8 7 7 6 4 2 1 1 10 11 13 12 12 12 12 12
25 22 22 19 17 17 16 16 17 16 15 14 13 11 10 11 11 10 10 9 9 9 8 9 9 8 7 6 5 5 6 5 3 6 12 16 14 13 12 11 12 13 9
22 20 20 17 16 16 16 16 16 15 14 13 11 10 9 9 9 9 8 8 7 7 7 8 7 6 5 5 4 3 2 3 6 9 12 13 13 14 12 11 12 11 10
22 19 17 16 16 16 15 15 14 13 13 11 9 9 8 8 7 6 6 5 5 6 6 7 6 6 4 3 3 3 5 5 5 7 9 9 11 12 13 12 10 11 11
22 19 17 18 17 16 15 14 14 13 12 9 8 7 6 6 5 5 4 4 4 4 5 5 5 5 5 4 3 3 2 4 3 6 11 10 10 13 12 11 12 11 10
26 21 18 17 16 16 16 15 13 12 11 9 8 6 5 5 4 4 3 3 4 4 3 3 3 3 3 2 2 2 3 4 4 3 11 10 11 13 12 10 9 10 9
24 21 22 18 17 16 15 13 12 11 10 7 6 6 6 5 5 4 3 3 3 2 2 1 1 1 0 0 1 1 4 3 11 4 10 8 11 13 12 10 9 9 7
21 21 19 19 18 19 15 11 10 9 8 6 6 6 5 6 8 6 4 3 2 2 2 2 2 3 5 10 6 5 3 3 5 6 8 7 9 12 12 10 10 9 8
21 21 19 20 18 18 16 12 9 8 8 7 7 8 5 7 6 9 6 4 6 7 10 4 9 8 4 8 16 13 8 2 2 13 10 11 10 10 11 9 9 11 9
23 20 22 23 20 19 19 16 16 14 16 10 13 7 5 4 2 8 9 3 4 3 8 6 7 4 3 2 5 3 13 8 8 7 9 5 6 8 11 10 8 10 10
23 24 25 24 20 16 20 13 19 20 14 16 14 11 7 4 3 2 6 6 2 8 2 6 5 7 11 11 11 13 13 12 10 3 15 3 3 4 8 11 11 10 11
25 24 27 26 22 16 11 12 14 12 12 10 15 10 9 8 5 2 3 6 8 7 3 5 5 7 9 8 10 5 8 5 10 2 5 6 3 4 6 9 13 12 11
22 18 24 22 20 17 13 7 6 6 5 9 6 15 10 8 1 1 3 6 10 6 5 4 6 7 10 8 11 8 7 6 5 6 3 5 3 6 7 7 9 11 13
22 22 22 21 20 21 16 11 6 8 8 7 9 9 7 5 5 4 5 10 7 4 8 4 4 8 12 15 13 9 6 10 4 5 7 9 8 10 9 7 7 9 11
24 23 20 20 25 23 18 15 14 12 13 12 11 13 12 9 10 6 6 7 8 5 5 4 2 7 13 10 11 10 8 6 7 9 8 5 4 5 11 7 7 9 11
24 24 24 22 22 25 21 17 16 16 14 9 14 10 6 12 10 8 9 6 9 6 6 0 2 6 11 9 10 10 1 5 6 7 3 2 2 1 8 12 6 6 12
26 25 26 23 20 28 24 21 16 16 9 12 8 11 13 11 8 8 9 9 9 4 2 2 3 6 6 11 7 11 3 3 3 1 3 3 8 4 11 9 1 8 6
26 26 27 24 25 22 20 21 19 16 17 16 20 11 13 9 11 9 12 11 10 6 4 3 1 6 6 2 9 14 14 2 3 5 7 9 6 4 4 6 10 7 7
27 29 27 27 23 24 21 22 21 24 23 26 20 19 18 13 10 8 8 6 9 5 6 4 4 6 10 5 5 12 2 8 8 7 6 7 1 7 9 6 8 7 4
29 29 30 29 25 26 22 23 23 11 10 13 23 16 15 14 11 12 6 6 6 5 11 5 4 3 8 4 4 4 4 1 2 9 8 6 4 4 6 3 4 5 7
29 30 32 31 28 27 31 21 22 15 12 12 9 13 14 12 11 10 11 11 8 3 7 5 6 1 3 9 1 2 2 2 3 2 12 6 7 8 5 4 3 3 6
30 33 33 34 32 28 30 25 20 19 22 18 18 16 12 13 11 10 12 10 9 6 9 4 3 1 1 6 11 5 2 5 1 1 1 6 11 11 8 6 6 2 3
34 34 35 37 36 34 31 32 26 24 26 17 14 15 13 13 15 12 13 16 14 11 8 8 6 5 3 2 2 2 7 3 2 2 2 8 5 8 14 8 8 6 4

GFSSE_925_spd_033.txt.gz
Wind_Speed
20 21 22 26 25 24 23 25 26 24 24 22 22 21 21 21 20 19 19 17 16 14 12 12 11 11 10 10 10 11 11 12 13 11 12 11 12 14 12 14 15 16 14
24 22 25 25 22 24 24 24 25 23 22 20 20 19 20 19 18 18 17 15 15 12 11 10 10 10 8 8 9 9 8 10 10 10 10 11 12 14 15 19 16 16 16
24 23 23 23 22 22 25 25 23 21 20 18 19 19 18 17 16 15 14 13 12 11 11 9 8 8 8 8 7 7 6 6 5 6 9 9 12 13 15 18 17 16 16
26 23 23 22 21 21 24 23 21 19 18 17 18 17 15 15 13 13 12 12 10 10 8 7 7 6 6 7 6 5 5 4 2 3 5 9 10 13 14 16 16 16 17
25 24 23 21 20 19 21 20 19 18 16 15 16 15 13 12 12 10 11 10 9 8 7 6 5 5 5 5 6 6 7 6 8 9 10 11 11 13 13 14 16 16 15
27 25 23 21 19 19 19 19 17 17 15 14 13 12 11 11 9 9 9 7 6 6 6 5 5 4 5 5 5 5 7 7 12 14 16 10 10 13 12 13 14 15 15
26 25 23 21 19 19 19 18 16 15 14 12 12 11 10 9 8 8 6 5 5 6 5 5 5 5 5 5 5 6 6 7 8 11 10 6 11 12 11 12 13 14 15
27 24 21 21 21 18 18 17 15 15 13 11 10 9 8 7 6 6 5 4 4 3 4 5 5 6 7 7 7 7 6 10 13 15 2 5 9 11 11 10 11 12 14
24 22 22 21 20 18 17 17 15 14 12 10 9 7 6 6 4 4 3 4 3 3 4 5 4 5 6 7 7 7 7 8 21 10 4 7 10 12 12 12 11 11 11
26 24 23 21 21 20 19 16 15 14 12 10 8 7 6 5 5 4 3 3 5 5 5 4 6 6 7 7 6 6 4 11 23 12 10 13 11 12 14 13 13 11 12
26 25 22 22 21 20 18 16 15 14 12 9 8 7 5 5 5 5 1 3 4 5 6 7 7 5 6 4 3 4 4 2 11 9 10 12 11 14 13 14 14 13 12
29 28 23 23 22 20 18 16 14 13 11 8 8 6 2 4 9 8 3 3 4 1 1 3 3 4 6 9 11 8 8 1 4 5 10 11 11 13 12 12 13 12 12
31 30 28 24 23 23 21 17 14 13 13 12 9 5 2 5 2 10 5 4 5 3 7 3 5 4 3 6 4 5 8 4 4 11 8 12 14 13 12 10 11 12 13
30 30 32 27 28 26 24 17 17 16 17 15 13 10 10 4 1 9 8 2 1 5 1 8 2 5 5 2 7 2 4 1 4 5 4 9 10 10 11 12 10 12 11
34 32 32 30 31 28 23 21 19 17 20 20 17 16 11 5 2 1 3 3 3 4 3 5 2 3 3 6 5 4 4 2 6 2 6 8 7 8 8 10 11 11 12
32 30 34 33 30 24 23 18 9 8 22 15 23 15 12 9 8 4 2 1 4 4 3 3 4 2 5 7 10 6 3 3 3 0 6 7 8 9 6 7 9 12 14
33 32 36 36 31 29 22 14 10 8 6 8 13 15 14 11 7 4 5 4 3 1 5 4 0 7 9 7 7 2 4 4 1 5 3 3 5 7 7 7 9 10 12
29 35 38 36 32 26 26 17 12 12 9 6 7 12 14 12 8 5 5 2 2 4 1 3 2 5 5 8 8 11 9 1 1 4 4 5 2 6 12 10 8 7 10
35 33 38 31 29 25 23 20 14 15 11 10 12 14 17 12 9 7 6 4 5 4 2 1 2 4 7 9 11 11 6 3 2 7 5 4 4 4 10 10 5 3 6
36 33 33 29 32 29 27 24 19 16 16 13 8 10 16 13 11 7 8 6 6 5 4 4 3 2 6 7 7 9 3 1 3 6 10 10 8 12 10 9 5 6 7
38 36 37 31 28 34 33 27 23 22 18 14 16 13 18 16 13 11 9 9 5 9 6 7 2 4 5 1 8 7 4 4 6 4 14 11 13 11 13 10 5 6 8
37 39 40 36 31 35 33 30 27 24 23 23 23 17 16 16 13 11 12 9 8 8 10 8 1 5 6 2 4 2 3 2 3 10 5 7 7 12 9 5 4 7 7
36 40 41 39 34 31 31 28 25 22 25 24 24 19 19 20 15 14 12 11 12 11 12 7 6 3 3 2 3 4 2 0 2 7 8 7 8 8 7 6 9 8 6
35 42 43 41 37 33 32 29 28 24 19 21 25 26 27 22 19 17 14 15 12 10 16 12 10 7 4 4 3 4 5 3 2 2 4 6 7 7 6 6 7 9 5
38 40 43 44 40 36 34 30 30 29 27 19 17 19 30 25 22 17 16 17 15 12 14 14 11 8 8 3 4 5 3 2 2 3 2 0 7 10 11 10 9 9 7
37 40 41 44 42 41 38 37 32 29 27 26 19 19 26 28 23 19 17 19 17 15 16 12 9 10 12 7 3 4 6 2 3 3 2 1 1 13 15 13 12 9 10